Air Resources Laboratory banner image
Air Resources Laboratory web site National Oceanic and Atmospheric Administration (NOAA)

ny roundup


Office: ALY

ASUS41 KALY 251110
RWRALY

NEW YORK STATE HOURLY WEATHER ROUNDUP
NATIONAL WEATHER SERVICE ALBANY NY
700 AM EDT FRI MAY 25 2018

NOTE: "FAIR" INDICATES FEW OR NO CLOUDS BELOW 12,000 FEET WITH NO
SIGNIFICANT WEATHER AND/OR NO OBSTRUCTIONS TO VISIBILITY.

NYZ032-033-038>043-046>054-057>066-NYZ062>081-082-084-251200-
EAST


CITY           SKY/WX    TMP DP  RH WIND       PRES   REMARKS
ALBANY         FAIR      59  50  72 S5        30.00S
GLENS FALLS    FAIR      56  50  80 CALM      29.97S
POUGHKEEPSIE   FAIR      60  53  77 CALM      30.02S
NEWBURGH       SUNNY     59  54  82 W5        30.05S
MONTGOMERY     FAIR      58  54  86 SW5       30.03S
WHITE PLAINS   FAIR      64  51  62 W6        30.04S
ISLIP          FAIR      63  55  75 SW5       30.05S
NEW YORK CITY  FAIR      70  51  51 SW7       30.04F
CENTRAL PARK   FAIR      66  52  60 VRB3      30.08S
$$

NYZ005>009-017-018-044>046-055-056-251200-
CENTRAL


CITY           SKY/WX    TMP DP  RH WIND       PRES   REMARKS
FULTON         FAIR      61  48  62 SW6       29.99S
SYRACUSE       FAIR      59  52  77 CALM      29.99S
ROME           FAIR      51  49  92 E3        30.03S
ELMIRA         FAIR      52  50  93 CALM      30.07R
BINGHAMTON     FAIR      58  48  69 SW7       30.05S
$$

NYZ026>034-041>043-087-251200-
NORTH


CITY           SKY/WX    TMP DP  RH WIND       PRES   REMARKS
WATERTOWN      FAIR      59  45  59 SW6       29.96S
FORT DRUM      NOT AVBL
OGDENSBURG     FAIR      61  50  66 SW8       29.90F
MASSENA        FAIR      64  51  62 SW15      29.88F
SARANAC LAKE   FAIR      58  47  66 SW9       29.94F
PLATTSBURGH    FAIR      67  47  48 MISG      29.85F
$$

NYZ001>004-010>016-019>021-085-251200-
WEST


CITY           SKY/WX    TMP DP  RH WIND       PRES   REMARKS
NIAGARA FALLS  FAIR      58  46  64 SW9       30.00S
BUFFALO        FAIR      54  49  83 SW6       30.01F
DUNKIRK        FAIR      62  46  55 S7        30.03F
JAMESTOWN      FAIR      55  44  66 S5        30.08
WELLSVILLE     FAIR      61  44  53 SW5       30.10F
ROCHESTER      PTSUNNY   60  49  66 SW8       30.01S
PENN YAN       FAIR      58  48  69 SW10      30.03F
$$

             KEY
       WCI = WIND CHILL INDEX
       VSB = VISIBILITY
       HX  = HEAT INDEX
$$




Office: OKX ASUS41 KOKX 251105 RWROKX Regional Weather Roundup National Weather Service New York NY 700 AM EDT FRI MAY 25 2018 Note: "FAIR" indicates few or no clouds below 12,000 feet with no significant weather and/or obstructions to visibility. NYZ071-072-176-178-NJZ106-104-251200- New York City Metro Area CITY SKY/WX TMP DP RH WIND PRES REMARKS Central Park FAIR 66 52 60 VRB3 30.08S Bronx Bot Gard N/A 68 50 52 S1 30.08R Bronx Lehman C N/A 68 50 52 W3 N/A LaGuardia Arpt FAIR 70 51 51 SW7 30.04F Queens College N/A 68 52 56 SW5 N/A Kennedy Intl FAIR 63 58 83 SW8 30.07S Breezy Point N/A 61 N/A N/A W7 N/A Brooklyn Coll N/A 64 54 68 SW7 N/A Staten Island N/A 63 54 72 SW5 N/A Newark/Liberty FAIR 64 54 69 SW6 30.06S Teterboro FAIR 64 55 72 CALM 30.04S $$ NYZ177-179-078>081-251200- Long Island New York CITY SKY/WX TMP DP RH WIND PRES REMARKS Jones Beach N/A 61 N/A N/A SW7 N/A Wantagh N/A 64 55 72 SW7 N/A Hempstead N/A 64 55 72 SW3 30.08S Matinecock Pt N/A 66 N/A N/A SW12 N/A Farmingdale FAIR 63 54 72 SW7 30.05S MacArthur/ISP FAIR 63 55 75 SW5 30.05S Stony Brook N/A 63 52 67 SW2 N/A Shirley FAIR 64 57 78 SW6 30.06R Mt Sinai Harb N/A N/A N/A N/A SW7 N/A Westhampton FAIR 61 54 77 SW6 30.07S East Hampton FAIR 58 54 87 CALM 30.04S Southold N/A 63 54 72 SW3 N/A Montauk N/A 63 53 70 W6 30.04S $$ NYZ052-065-067-251200- Hudson Valley CITY SKY/WX TMP DP RH WIND PRES REMARKS White Plains FAIR 64 51 62 W6 30.04S Larchmont Harb N/A 61 N/A N/A SW5 N/A Croton On Huds N/A 63 N/A N/A MISG N/A Somers N/A 59 52 77 NW1 N/A Brewster N/A 54 50 87 N1 N/A Newburgh SUNNY 59 54 82 W5 30.05S Montgomery FAIR 58 54 86 SW5 30.03S Otisville N/A 59 52 77 S5 N/A Warwick N/A 55 55 100 E2 N/A Suffern N/A 64 52 63 S2 N/A Poughkeepsie FAIR 60 53 77 CALM 30.02S Albany FAIR 59 50 72 S5 30.00S $$ NJZ001-105-106-008-010-013-015-019>022-104-251200- New Jersey CITY SKY/WX TMP DP RH WIND PRES REMARKS Newark/Liberty FAIR 64 54 69 SW6 30.06S Teterboro FAIR 64 55 72 CALM 30.04S Caldwell FAIR 65 52 62 CALM 30.06S Somerville FAIR 55 53 93 CALM 30.06S Linden FAIR 63 52 68 CALM 30.06F Perth Amboy N/A 61 N/A N/A W9 N/A Sussex FAIR 54 54 100 CALM 30.06S Andover N/A 57 56 96 CALM 30.07S Trenton FAIR 60 56 86 CALM 30.08S Millville FAIR 59 57 93 CALM 30.11R Atlantic City FAIR 62 59 90 SW3 30.11R Wrightstown FAIR 60 57 88 SW6 30.07R Toms River FAIR 63 59 87 SW7 30.10S Belmar FAIR 62 57 83 SW7 30.09S $$ PAZ047>061-062-071-251200- Eastern Pennsylvania CITY SKY/WX TMP DP RH WIND PRES REMARKS Philadelphia FAIR 63 60 90 SW8 30.10R Allentown FAIR 58 53 84 NW3 30.07F Scranton FAIR 56 53 90 CALM 30.08S $$ CTZ002-004>006-009-010-012-RIZ004-006-007-MAZ004-011-015-251200- Southern New England In CT CITY SKY/WX TMP DP RH WIND PRES REMARKS Bradley Intl FAIR 56 51 84 S3 30.01S Hartford FAIR 58 52 80 S5 30.01S Danbury FAIR 57 53 86 CALM 30.05F Wtrbury/Oxford FAIR 58 52 80 CALM 30.05S Norwalk Harbor N/A 61 N/A N/A S3 N/A Bridgeport FAIR 61 54 77 W5 30.03S Meriden FAIR 53 51 93 CALM 30.03S New Haven FAIR 57 53 86 S3 30.03F Chester FAIR 61 52 72 SW7 30.03S Groton FAIR 56 54 93 W3 30.02S Willimantic FOG 49 49 100 CALM 30.03S VSB 1/4 In RI CITY SKY/WX TMP DP RH WIND PRES REMARKS Providence FAIR 58 50 75 W9 30.01S Block Island FAIR 57 53 86 SW14 30.04R Westerly FAIR 54 54 100 W3 30.03S In MA CITY SKY/WX TMP DP RH WIND PRES REMARKS Boston FAIR 62 48 60 SW14 29.95F Worcester FAIR 57 46 66 W13 30.00S Westfield FAIR 53 52 96 CALM 30.00S Provincetown FAIR 56 52 86 SW13 29.97F Nantucket FAIR 55 54 96 SW15 30.02S $$ ANZ330-335-338-340-345-350-353-355-251200- Coastal Marine Observations STATION/POSITION TIME SKY/WX TEMP WIND PRES VSBY WAVE AIR SEA DIR/SP/G HT/PER (UTC) (F) (DEG/KT/KT) (MB) (MI) (FT/S) NY Harb Entrance 1050 60 56 240/ 6/ 8 1018.1 2/ 7 20 S Fire Island 1050 58 55 240/ 8/ 8 1018.3 2/ 4 23 SSW Montauk P 1050 58 55 240/ 12/ 14 1017.8 2/ 4 15 E Barnegat Li 1030 61 N/A 2/ 4 Hudson Canyon 1050 57 54 240/ 10/ 10 1018.8 2/ 8 Kings Point 1048 66 59 210/ 5/ 6 1018.5 Execution Rocks NOT AVBL Western LI Sound 1020 61 270/ 4/ 6 N/A 0 Central LI Sound 1045 59 240/ 4/ 6 N/A 0 Robbins Reef 1048 64 250/ 11/ 13 1018.3 $$ >>>>>>>>>>>>>>>>>>>>>>>>>>>> KEY <<<<<<<<<<<<<<<<<<<<<<<<<<< > < > SKY/WX - Sky Condition/Present Weather < > TMP - Temperature in Fahrenheit < > DP - Dew Point in Fahrenheit < > RH - Relative Humidity in Percent < > WIND - Direction (from) and Speed in MPH < > PRES - Mean Sea Level Pressure (inches of Hg) < > WCI - Wind Chill Index < > VSB - Visibility in Miles < > HX - Heat Index < > TC - Temperature in Celsius < > VRB - Varibale Wind Direction < > < >>>>>>>>>>>>>>>>>>>>>>>>>>>> KEY <<<<<<<<<<<<<<<<<<<<<<<<<<<
Office: BUF ASUS61 KBUF 250014 RTPBUF MAX/MIN TEMPERATURE AND PRECIPITATION TABLE FOR WESTERN NY AND THE EASTERN LAKE ONTARIO REGION NATIONAL WEATHER SERVICE BUFFALO, NY 814 PM EDT Thu May 24 2018 Values represent: High temperature over the last 18 hours Low temperature over the last 18 hours Precipitation over the last 24 hours .BR BUF 0524 ES DH19/TAIRZS/TAIRZI/PPDRZZ/SFDRZZ/SDIRZZ : : Official Climate Stations : Max Min 24 HR Snow Snow : Location Temp Temp Precip Fall Depth BUF :Buffalo Airport : 75 / 50 / 0.00 / 0.0 / 0 ROC :Rochester Airport : 83 / 49 / 0.00 / 0.0 / 0 ART :Watertown Airport : 71 / 37 / 0.00 / / : : Unofficial Supplemental Sites : IAG :Niagara Falls Airport : 80 / 51 / 0.00 / / DKK :Dunkirk Airport : 79 / 50 / 0.00 / / ELZ :Wellsville Airport : 79 / 49 / 0.00 / / DSV :Dansville Airport : 83 / 49 / 0.00 / / FZY :Oswego Airport : 78 / 42 / 0.00 / / GTB :Fort Drum : 74 / 42 / 0.00 / / .END These data are preliminary and have not undergone final quality control by the National Centers for Environmental Information (formerly National Climatic Data Center - NCDC). Therefore... these data are subject to revision. Final and certified climate data can be accessed at www.ncdc.noaa.gov. $$
Office: BOX ASUS41 KBOX 251110 RWRBOX REGIONAL WEATHER ROUNDUP NATIONAL WEATHER SERVICE BOSTON/NORTON MA 700 AM EDT FRI MAY 25 2018 NOTE: "FAIR" INDICATES FEW OR NO CLOUDS BELOW 12,000 FEET WITH NO SIGNIFICANT WEATHER AND/OR OBSTRUCTIONS TO VISIBILITY. MAZALL-251200- EASTERN MASSACHUSETTS CITY SKY/WX TMP DP RH WIND PRES REMARKS BOSTON FAIR 62 48 60 SW14 29.95F BEVERLY FAIR 60 50 69 W9 29.93F LAWRENCE FAIR 61 49 64 S8 29.95F BEDFORD FAIR 58 49 72 SW8 29.95S BLUE HILL N/A 55 47 74 W16 29.96F NORWOOD FAIR 58 50 75 SW5 29.97F MARSHFIELD FAIR 57 50 77 W9 29.97S PLYMOUTH FAIR 54 51 90 SW7 29.99F TAUNTON FAIR 57 51 80 W3 29.99S NEW BEDFORD FAIR 56 53 90 SW6 29.99F $$ MAZALL-251200- CAPE COD AND THE ISLANDS CITY SKY/WX TMP DP RH WIND PRES REMARKS FALMOUTH FAIR 57 54 88 SW8 30.01S HYANNIS FAIR 59 52 77 SW12 29.98S CHATHAM FAIR 59 55 87 SW9G20 30.00S PROVINCETOWN FAIR 56 52 86 SW13 29.97F NANTUCKET FAIR 55 54 96 SW15 30.02S MARTHAS VNYRD FAIR 58 53 84 SW7 30.01S $$ MAZALL-251200- CENTRAL AND WESTERN MASSACHUSETTS CITY SKY/WX TMP DP RH WIND PRES REMARKS WORCESTER FAIR 57 46 66 W13 30.00S FITCHBURG FAIR 61 50 67 NW10 29.96F ORANGE FAIR 51 50 96 CALM 30.01S SPRINGFIELD MOSUNNY 52 51 95 CALM 30.00S WESTFIELD FAIR 53 52 96 CALM 30.00S NORTH ADAMS FAIR 49 46 90 CALM 30.00F PITTSFIELD FAIR 50 46 86 CALM 30.02S $$ RIZALL-251200- RHODE ISLAND CITY SKY/WX TMP DP RH WIND PRES REMARKS PROVIDENCE FAIR 58 50 75 W9 30.01S NEWPORT FAIR 59 51 75 VRB3 30.01S BLOCK ISLAND FAIR 57 53 86 SW14 30.04R SMITHFIELD FAIR 57 49 74 MISG 30.00F WESTERLY FAIR 54 54 100 W3 30.03S $$ CTZALL-251200- CONNECTICUT CITY SKY/WX TMP DP RH WIND PRES REMARKS BRADLEY INTL FAIR 56 51 84 S3 30.01S HARTFORD FAIR 58 52 80 S5 30.01S BRIDGEPORT FAIR 61 54 77 W5 30.03S DANBURY FAIR 57 53 86 CALM 30.05F GROTON FAIR 56 54 93 W3 30.02S NEW HAVEN FAIR 57 53 86 S3 30.03F CHESTER FAIR 61 52 72 SW7 30.03S MERIDEN FAIR 53 51 93 CALM 30.03S WILLIMANTIC FOG 49 49 100 CALM 30.03S VSB 1/4 OXFORD FAIR 58 52 80 CALM 30.05S $$ MEZ002-015-021-024-NHZ003-005-008-011-012-014-VTZ005-008-251200- NORTHERN NEW ENGLAND CITY SKY/WX TMP DP RH WIND PRES REMARKS PORTLAND ME FAIR 63 49 60 SW8 29.85S BANGOR ME FAIR 55 48 77 S8 29.74F CONCORD NH FAIR 58 51 78 SE6 29.92F MANCHESTER NH FAIR 63 49 60 S6 29.91F NASHUA NH FAIR 64 50 60 SW5 29.94F PORTSMOUTH NH MOSUNNY 60 50 69 SW9 29.88F JAFFREY NH FAIR 54 51 90 S9 29.99F KEENE NH FAIR 49 48 97 S3 29.99 BURLINGTON VT PTSUNNY 65 47 52 S9 29.88F MT. WASHINGTON NOT AVBL $$ NYZ052-076-251200- EASTERN NEW YORK CITY SKY/WX TMP DP RH WIND PRES REMARKS ALBANY FAIR 59 50 72 S5 30.00S NEW YORK CITY FAIR 70 51 51 SW7 30.04F $$ ANZALL-251200- MARINE OBSERVATIONS STATION/POSITION TIME TEMP WIND PRES VSBY WAVE AIR SEA DIR/SP/G HT/PER (UTC) (F) (DEG/KT/KT) (MB) (MI) (FT/S) BOSTON BUOY 1050 56 55 230/ 14/ 16 1013.8F 2/ 3 BUZZARDS BAY 1000 56 240/ 17/ 18 1016.8S NANTUCKET SOUND 1050 57 56 240/ 14/ 16 1016.0F 2/ 3 MASS BAY-STELLWA 1004 55 54 1012.3S 3/ 4 ISLE OF SHOALS 1100 59 240/ 18/ 19 1011.7F S OF BLOCK IS 1043 51 N/A 2/ 4 $$ ......................KEY......................... SKY/WX - SKY CONDITION/PRESENT WEATHER TMP - TEMPERATURE IN FAHRENHEIT DWPT - DEWPOINT IN FAHRENHEIT RH - RELATIVE HUMIDITY IN PERCENT WIND - DIRECTION AND SPEED IN MPH PRES - MEAN SEA LEVEL PRESSURE IN INCHES OF HG WCI - WIND CHILL INDEX VSB - VISIBILITY IN MILES HX - HEAT INDEX TC - TEMPERATURE IN CELSIUS VRB - VARIABLE WIND DIRECTION N/A - NOT AVAILABLE
Office: GYX ASUS41 KGYX 251105 RWRGYX WEATHER ROUNDUP FOR MAINE AND NEW HAMPSHIRE NATIONAL WEATHER SERVICE GRAY ME 700 AM EDT FRI MAY 25 2018 MEZ002-005-006-010-012-015-018-020-021-024-026-027-029-251200- MAINE CITY SKY/WX TMP DP RH WIND PRES REMARKS PORTLAND FAIR 63 49 60 SW8 29.85S SANFORD FAIR 65 49 56 W9 29.89S BAR HARBOR FAIR 54 49 83 SW10 29.77F WISCASSET FAIR 56 52 86 CALM 29.83F ROCKLAND FAIR 56 50 80 W12 29.80F FRYEBURG FAIR 67 45 45 VRB6 29.84F LEWISTONAUBURN FAIR 53 49 86 CALM 29.83S AUGUSTA FAIR 56 47 71 SW7 29.80F WATERVILLE FAIR 50 48 93 SW6 29.76F BANGOR FAIR 55 48 77 S8 29.74F GREENVILLE N/A 64 45 49 VRB3 29.70F MILLINOCKET FAIR 53 45 74 CALM 29.71S HOULTON FAIR 50 48 93 S6 29.68 PRESQUE ISLE LGT RAIN 48 46 93 S8 29.70R FRENCHVILLE LGT RAIN 48 45 89 S13 29.63F CARIBOU LGT RAIN 49 46 90 S6 29.67S $$ NHZ002-005-008-009-011-012-014-251200- NEW HAMPSHIRE CITY SKY/WX TMP DP RH WIND PRES REMARKS PORTSMOUTH MOSUNNY 60 50 69 SW9 29.88F ROCHESTER FAIR 61 51 70 CALM 29.89F NASHUA FAIR 64 50 60 SW5 29.94F MANCHESTER FAIR 63 49 60 S6 29.91F CONCORD FAIR 58 51 78 SE6 29.92F LACONIA FAIR 59 49 69 NW3 29.90F PLYMOUTH FAIR 45 44 97 CALM 29.91F BERLIN FAIR 52 46 80 CALM 29.86S WHITEFIELD FAIR 46 43 89 CALM 29.89F JAFFREY FAIR 54 51 90 S9 29.99F KEENE FAIR 49 48 97 S3 29.99 LEBANON FAIR 52 46 80 CALM 29.92F MT WASHINGTON NOT AVBL $$ VTZ005-007-008-251200- VERMONT CITY SKY/WX TMP DP RH WIND PRES REMARKS ST JOHNSBURY N/A 47 42 83 MISG 29.88S MONTPELIER FAIR 65 47 52 W7 29.94S BURLINGTON PTSUNNY 65 47 52 S9 29.88F $$ MAZ007-012-024-CTZ003-RIZ002-NYZ038-NYZ072-251200- SOUTHERN NEW ENGLAND AND NY CITY SKY/WX TMP DP RH WIND PRES REMARKS BOSTON FAIR 62 48 60 SW14 29.95F WORCESTER FAIR 57 46 66 W13 30.00S NANTUCKET FAIR 55 54 96 SW15 30.02S PROVIDENCE FAIR 58 50 75 W9 30.01S HARTFORD FAIR 56 51 84 S3 30.01S ALBANY FAIR 59 50 72 S5 30.00S NEW YORK CITY FAIR 70 51 51 SW7 30.04F $$ ANZ081-ANZ082-ANZ150-NHZ014-MEZ023>029-251200- COASTAL MARINE OBSERVATIONS STATION/POSITION TIME TEMP WIND PRES WAVE AIR SEA DIR/SP/G HT/PER (UTC) (F) (DEG/KT/KT) (MB) (FT/S) MOUNT DESERT ROC 1100 50 210/ 25/ 27 1008.9F MATINICUS ROCK 1000 52 230/ 27/ 28 1009.3F ISLE OF SHOALS 1000 58 250/ 19/ 20 1012.1R JEFFREYS LEDGE 1036 52 N/A 4/ 5 CASHES LEDGE BUO 1050 55 51 1010.9 6/ 6 $$ .............KEY.............. WCI - WIND CHILL TC - TEMPERATURE IN CELSIUS VSB - VISIBILITY IN MILES HX - HEAT INDEX FAIR- INDICATES FEW OR NO CLOUDS BELOW 12,000 FT, WITH NO SIGNIFICANT WEATHER AND/OR OBSTRUCTIONS TO VISIBILITY. ASUS41 KGYX 251110 RWRGYX WEATHER ROUNDUP FOR MAINE AND NEW HAMPSHIRE NATIONAL WEATHER SERVICE GRAY ME 700 AM EDT FRI MAY 25 2018 MEZ002-005-006-010-012-015-018-020-021-024-026-027-029-251200- MAINE CITY SKY/WX TMP DP RH WIND PRES REMARKS PORTLAND FAIR 63 49 60 SW8 29.85S SANFORD FAIR 65 49 56 W9 29.89S BAR HARBOR FAIR 54 49 83 SW10 29.77F WISCASSET FAIR 56 52 86 CALM 29.83F ROCKLAND FAIR 56 50 80 W12 29.80F FRYEBURG FAIR 67 45 45 VRB6 29.84F LEWISTONAUBURN FAIR 53 49 86 CALM 29.83S AUGUSTA FAIR 56 47 71 SW7 29.80F WATERVILLE FAIR 50 48 93 SW6 29.76F BANGOR FAIR 55 48 77 S8 29.74F GREENVILLE N/A 64 45 49 VRB3 29.70F MILLINOCKET FAIR 53 45 74 CALM 29.71S HOULTON FAIR 50 48 93 S6 29.68 PRESQUE ISLE LGT RAIN 48 46 93 S8 29.70R FRENCHVILLE LGT RAIN 48 45 89 S13 29.64F FOG CARIBOU LGT RAIN 49 46 90 S6 29.67S $$ NHZ002-005-008-009-011-012-014-251200- NEW HAMPSHIRE CITY SKY/WX TMP DP RH WIND PRES REMARKS PORTSMOUTH MOSUNNY 60 50 69 SW9 29.88F ROCHESTER FAIR 61 51 70 CALM 29.89F NASHUA FAIR 64 50 60 SW5 29.94F MANCHESTER FAIR 63 49 60 S6 29.91F CONCORD FAIR 58 51 78 SE6 29.92F LACONIA FAIR 59 49 69 NW3 29.90F PLYMOUTH FAIR 45 44 97 CALM 29.91F BERLIN FAIR 52 46 80 CALM 29.86S WHITEFIELD FAIR 46 43 89 CALM 29.89F JAFFREY FAIR 54 51 90 S9 29.99F KEENE FAIR 49 48 97 S3 29.99 LEBANON FAIR 52 46 80 CALM 29.92F MT WASHINGTON NOT AVBL $$ VTZ005-007-008-251200- VERMONT CITY SKY/WX TMP DP RH WIND PRES REMARKS ST JOHNSBURY N/A 47 42 83 MISG 29.88S MONTPELIER FAIR 65 47 52 W7 29.94S BURLINGTON PTSUNNY 65 47 52 S9 29.88F $$ MAZ007-012-024-CTZ003-RIZ002-NYZ038-NYZ072-251200- SOUTHERN NEW ENGLAND AND NY CITY SKY/WX TMP DP RH WIND PRES REMARKS BOSTON FAIR 62 48 60 SW14 29.95F WORCESTER FAIR 57 46 66 W13 30.00S NANTUCKET FAIR 55 54 96 SW15 30.02S PROVIDENCE FAIR 58 50 75 W9 30.01S HARTFORD FAIR 56 51 84 S3 30.01S ALBANY FAIR 59 50 72 S5 30.00S NEW YORK CITY FAIR 70 51 51 SW7 30.04F $$ ANZ081-ANZ082-ANZ150-NHZ014-MEZ023>029-251200- COASTAL MARINE OBSERVATIONS STATION/POSITION TIME TEMP WIND PRES WAVE AIR SEA DIR/SP/G HT/PER (UTC) (F) (DEG/KT/KT) (MB) (FT/S) MOUNT DESERT ROC 1100 50 210/ 25/ 27 1008.9F MATINICUS ROCK 1100 53 230/ 25/ 26 1009.2F ISLE OF SHOALS 1100 59 240/ 18/ 19 1011.7F JEFFREYS LEDGE 1036 52 N/A 4/ 5 CASHES LEDGE BUO 1050 55 51 1010.9 6/ 6 $$ .............KEY.............. WCI - WIND CHILL TC - TEMPERATURE IN CELSIUS VSB - VISIBILITY IN MILES HX - HEAT INDEX FAIR- INDICATES FEW OR NO CLOUDS BELOW 12,000 FT, WITH NO SIGNIFICANT WEATHER AND/OR OBSTRUCTIONS TO VISIBILITY.
Office: PHI ASUS41 KPHI 251013 RWRPHI REGIONAL WEATHER ROUNDUP NATIONAL WEATHER SERVICE MOUNT HOLLY NJ 600 AM EDT FRI MAY 25 2018 NOTE: "FAIR" INDICATES FEW OR NO CLOUDS BELOW 12,000 FEET WITH NO SIGNIFICANT WEATHER AND/OR OBSTRUCTIONS TO VISIBILITY. * = STATION DOES NOT REPORT PRECIPITATION (E.G. RAIN, SNOW, ETC.) OR FOG. NJZ015>026-251100- SOUTHERN NEW JERSEY CITY SKY/WX TMP DP RH WIND PRES REMARKS POMONA FAIR 59 56 89 CALM 30.10R WILDWOOD* FAIR 59 56 89 CALM 30.11S MILLVILLE FAIR 53 52 96 CALM 30.10R WRIGHTSTOWN FAIR 56 54 94 SW3 30.06R MOUNT HOLLY FAIR 58 57 97 CALM 30.08R TRENTON FAIR 57 53 86 SW3 30.08R $$ NJZ001>014-251100- NORTHERN NEW JERSEY CITY SKY/WX TMP DP RH WIND PRES REMARKS SUSSEX FAIR 51 50 96 CALM 30.06S ANDOVER* N/A 55 53 93 S5 30.07S MORRISTOWN FAIR 54 54 100 CALM 30.06S NEWARK FAIR 62 53 72 SW6 30.06R TETERBORO FAIR 61 52 72 SW3 30.04R CALDWELL FAIR 62 52 69 CALM 30.06R SOMERVILLE FAIR 51 51 100 CALM 30.06R FOG ALLAIRE* FAIR 60 56 86 SW7 30.09R TOMS RIVER* FAIR 58 56 93 W6 30.10R $$ PAZ043-044-047-054-055-060>062-066>071-251100- EASTERN PENNSYLVANIA CITY SKY/WX TMP DP RH WIND PRES REMARKS PHILADELPHIA FAIR 62 58 86 SW3 30.09R NORTH PHILA FAIR 62 56 80 W6 30.10R BLUE BELL* FAIR 52 52 100 CALM 30.10S DOYLESTOWN FAIR 58 54 86 S3 30.08R QUAKERTOWN* CLEAR 52 52 100 CALM 30.09R PERKASIE* FAIR 54 54 100 CALM 30.10R POTTSTOWN FAIR 53 52 96 CALM 30.10R LANCASTER FAIR 54 51 90 CALM 30.09R COATESVILLE FAIR 63 50 63 VRB5 30.11R READING FAIR 55 54 96 CALM 30.08R ALLENTOWN FAIR 55 50 83 CALM 30.08R MOUNT POCONO FAIR 54 47 77 W7 30.10S HAZLETON FAIR 46 41 81 CALM 30.13S LEHIGHTON FAIR 46 46 100 CALM 30.10S FOG WILKES BARRE FAIR 53 51 93 SE3 30.08R $$ DEZALL-MDZ008-012-015-019-020-251100- DELAWARE AND EASTERN MARYLAND CITY SKY/WX TMP DP RH WIND PRES REMARKS WILMINGTON FAIR 58 56 93 CALM 30.10R DOVER FAIR 62 60 94 S6 30.09S GEORGETOWN FAIR 59 56 89 SW3 30.11S EASTON CLEAR 64 63 94 CALM 30.14R ABERDEEN PTCLDY 57 55 94 CALM N/A PATUXENT FAIR 69 62 78 SW10 30.11 OCEAN CITY FAIR 56 55 97 CALM 30.12S WALLOPS ISLAND FAIR 60 58 92 CALM 30.13R CAMBRIDGE CLEAR 63 61 94 CALM 30.11R FOG SALISBURY FAIR 56 55 97 SE3 30.11S $$ PAZ001-021-NYZ056-072-MDZ011-DCZ001-251100- OTHER NEARBY LOCATIONS CITY SKY/WX TMP DP RH WIND PRES REMARKS HARRISBURG FAIR 55 52 89 CALM 30.08R STATE COLLEGE CLEAR 57 50 77 CALM 30.09S WILLIAMSPORT FAIR 53 51 93 CALM 30.07S BINGHAMTON FAIR 58 47 66 SW6 30.05F NEW YORK CITY FAIR 66 51 58 W5 30.08R BALTIMORE FAIR 60 57 89 W3 30.10R WASHINGTON DC FAIR 63 58 83 SW6 30.11R $$